YAOGAN-13

Last updated on Mon Oct 14 2024 00:02:24 GMT+0000 (Coordinated Universal Time)

1 37941U 11072A 24287.50642357 .00089605 00000+0 11866-2 0 9991 2 37941 97.7261 279.5120 0003823 91.4917 268.6776 15.57987677615276
UTC large
Height (km)
Speed (km/s)
/
Latitude / Longitude
Inclination (degrees)
Orbital Period (minutes)
Azimuth
Elevation
Range (km)
Doppler Factor

Next 0 passes for location: London (51.5072 / 0.1276)

Sorry there are no passes over London.